Location: Arrow Head Lodge
(44.7836°N, 106.9681°W)
Time: 06:31:29
(UTC+00:00)

N. Korean satellite - Visible Passes

Search period start: 21 October 2021 00:00
Search period end: 31 October 2021 00:00
Orbit: 450 x 495 km, 97.3° (Epoch: 20 October)

Date Brightness Start Highest point End Pass type
(mag) Time Alt. Az. Time Alt. Az. Time Alt. Az.
21 Oct 9.2 11:43:13 10° NE 11:46:12 23° E 11:49:08 10° SSE visible
22 Oct 10.2 11:16:47 10° ENE 11:17:53 11° E 11:18:58 10° ESE visible
22 Oct 6.7 12:47:50 10° N 12:51:25 53° WNW 12:54:57 10° SSW visible
23 Oct 7.0 12:19:42 10° NNE 12:23:22 66° E 12:26:58 10° S visible
24 Oct 8.7 11:51:56 10° NE 11:55:11 29° E 11:58:22 10° SSE visible
25 Oct 9.9 11:24:53 10° ENE 11:26:52 14° E 11:28:51 10° SE visible
25 Oct 7.0 12:56:50 10° N 13:00:17 41° WNW 13:03:42 10° SW visible
26 Oct 6.6 12:28:34 10° NNE 12:32:15 87° E 12:35:51 10° SSW visible
27 Oct 10.0 00:39:07 10° SW 00:41:09 14° W 00:43:12 10° WNW visible
27 Oct 8.2 12:00:40 10° NNE 12:04:04 37° E 12:07:26 10° SSE visible
28 Oct 9.6 11:33:15 10° NE 11:35:47 18° E 11:38:15 10° SE visible
28 Oct 7.3 13:05:48 10° N 13:09:04 32° WNW 13:12:18 10° SW visible
29 Oct 6.5 12:37:24 10° N 12:41:02 72° WNW 12:44:36 10° SSW visible
30 Oct 10.3 00:48:46 10° WSW 00:50:01 11° W 00:51:16 10° WNW visible
30 Oct 7.6 12:09:20 10° NNE 12:12:53 48° E 12:16:21 10° S visible
